www.pogodaiklimat.ru

Погода и климат >> Архив погоды >> Россия >> Коми >> Петрунь


АРХИВ ПОГОДЫ в Петруни

Время (UTC), дата Ветер
(напр.,м/с)
 
Видим.   Явления Облачность Т
(С)
Тd
(С)
f
(%)
Тe
(С)
Тes
(С)
Комфортность P
(гПа)
Po
(гПа)
Тmin
(С)
Tmax
(С)
R
(мм)
R24
(мм)
S
(см)
06 17.02 Ю 1 28 км {снег} 10/0
[Ac As]
-9.9 -11.6 87 -12 -12 991.1 983.2
09 17.02 ЮВ 2 30 км 10/10 1380 м
[Sc]
-8.3 -11.5 78 -13 -13 990.0 982.2
12 17.02 В 2 35 км 10/10 1260 м
[Sc]
-8.9 -12.3 76 -13 -13 988.7 980.9
15 17.02 В 3 35 км 6/0
[Ac As Cs]
-9.4 -11.9 82 -15 -15 987.5 979.6 -8.0 0.0
18 17.02 СВ 3 30 км 9/0
[Ac As Cs]
-13.4 -15.4 85 -20 -20 987.2 979.2
21 17.02 СВ 2 29 км 10/0
[Cs]
-16.3 -18.2 85 -22 -22 986.7 978.7
00 18.02 С 2 9000 м слаб. снег 10/0
[As op]
-13.7 -15.0 90 -18 -18 987.2 979.2
03 18.02 С 1 7000 м слаб. снег 10/0
[As op]
-13.6 -14.9 90 -16 -16 987.5 979.5 -17.2 0.3 61
06 18.02 С 3 8000 м слаб. снег 10/0
[As op]
-13.2 -15.2 85 -19 -19 989.1 981.1
09 18.02 С 4 9000 м слаб. снег 10/1 300 м
[Frnb As op]
-11.0 -13.0 85 -18 -18 992.0 984.1
12 18.02 С 6-11
{11}
28 км позёмок {снег} 9/0
[Ac As]
-15.4 -18.1 80 -25 -25 996.8 988.7
15 18.02 С 4
{11}
30 км {метель} 9/0
[Cs]
-17.9 -20.5 80 -26 -26 1001.7 993.4 -10.7 3
18 18.02 З 2 28 км {метель} 1/0
[Ci fib]
-22.9 -25.4 80 -29 -29 1005.3 996.9
21 18.02 Ю 2 30 км ясно -26.4 -28.8 80 -33 -33 опасность
обморожения
1007.0 998.4
00 19.02 Ю 2 29 км 4/0
[Ci sp]
-27.8 -30.3 79 -35 -35 опасность
обморожения
1007.4 998.8
03 19.02 ЮЗ 2 27 км 9/9 700 м
[Sc]
-26.5 -29.0 79 -33 -33 опасность
обморожения
1007.1 998.5 -27.9 61
06 19.02 Ю 2 35 км 1/0
[Ac As]
-24.4 -26.9 80 -31 -30 опасность
обморожения
1006.6 998.1
09 19.02 Ю 3 40 км 3/0
[Ac As Ci fib]
-19.8 -23.1 75 -27 -27 1005.4 997.1
12 19.02 Ю 3 40 км 4/0
[Ac lent Ci sp]
-17.7 -21.8 70 -25 -25 1004.4 996.1
15 19.02 Ю 4 35 км 8/0
[Ac As Ci fib]
-17.0 -21.2 70 -25 -25 1003.5 995.3 -16.9
18 19.02 Ю 3 35 км 9/0
[Ac As Cs]
-15.3 -18.0 80 -22 -22 1003.0 994.8
21 19.02 Ю 5-10
{10}
35 км позёмок 9/0
[Ac As Cs]
-12.5 -18.7 60 -21 -21 1001.9 993.8
00 20.02 ЮЗ 5-11
{11}
30 км позёмок 10/0
[Ac und]
-12.8 -20.0 55 -21 -21 1001.3 993.2
03 20.02 Ю 6-11
{11}
30 км позёмок 10/0
[Ac und]
-13.8 -18.1 70 -23 -23 1001.3 993.2 -17.5 60
06 20.02 Ю 4
{11}
8000 м слаб. снег {метель} 10/0
[As op]
-14.5 -17.2 80 -22 -22 1002.7 994.6
09 20.02 ЮЗ 3 30 км {снег} 9/0
[Ac As]
-13.6 -17.1 75 -20 -20 1003.1 995.0
12 20.02 ЮВ 1 30 км {снег} 10/0
[Ac As]
-13.3 -16.8 75 -16 -16 1003.3 995.2
15 20.02 В 2 10 км слаб. снег 10/0
[As op]
-13.5 -15.5 85 -18 -18 1002.8 994.7 -13.0 0.3
18 20.02 В 2 27 км в посл. час снег 10/0
[As trans]
-14.0 -16.7 80 -19 -19 1001.5 993.3
21 20.02 СВ 4 30 км 10/0
[Cs]
-14.9 -19.1 70 -23 -23 999.7 991.6
00 21.02 СВ 3 30 км 10/0
[Ac As]
-15.6 -19.0 75 -22 -22 998.1 990.0
03 21.02 В 4 8000 м слаб. снег 10/0
[As op]
-13.0 -15.0 85 -20 -20 996.5 988.4 -15.8 0.7 60
06 21.02 В 3 7000 м слаб. снег 10/0
[As op]
-11.1 -12.4 90 -17 -17 995.9 987.9
09 21.02 В 3 8000 м слаб. снег 10/3 300 м
[Frnb As op]
-11.0 -13.0 85 -17 -17 996.1 988.1
12 21.02 Ю 3 28 км {снег} 10/0
[Ac As]
-17.1 -19.0 85 -24 -24 997.7 989.5
15 21.02 С 3 30 км 10/0
[Ac As]
-16.3 -18.2 85 -23 -23 1000.3 992.1 -11.0 2
18 21.02 С 3 30 км {снег} 8/0
[Cs]
-18.4 -20.3 85 -26 -26 1003.5 995.2
21 21.02 С 3 8000 м слаб. снег 10/0
[As op]
-18.8 -20.7 85 -26 -26 1007.1 998.8
00 22.02 СЗ 3 29 км {снег} 9/0
[Ac As Ci sp]
-20.9 -23.4 80 -29 -29 1010.7 1002.3
03 22.02 СЗ 2 28 км 9/0
[Ac As]
-22.8 -25.3 80 -29 -29 1014.2 1005.7 -22.8 0.2 62
06 22.02 СЗ 1 35 км 3/0
[Ac As Ci fib]
-23.5 -26.0 80 -27 -26 1018.1 1009.6 -25.2
09 22.02 С 1 45 км ясно -19.7 -23.0 75 -23 -21 1021.1 1012.6
12 22.02 СЗ 1 50 км ясно -20.6 -24.6 70 -24 -24 1023.6 1015.1
15 22.02 СЗ 1 45 км ясно -26.7 -29.1 80 -30 -30 1025.5 1016.8 -18.9
18 22.02 штиль 0 35 км ясно -32.4 -35.5 74 -32 -32 опасность
обморожения
1025.9 1017.0
21 22.02 штиль 0 30 км ясно -34.6 -37.4 76 -35 -35 опасность
обморожения
1024.3 1015.3
00 23.02 штиль 0 29 км ясно -35.7 -38.6 75 -36 -36 опасность
обморожения
1022.2 1013.2
03 23.02 ЮВ 1 30 км 6/0
[Cs]
-36.7 -39.7 74 -42 -42 опасность
обморожения
1020.2 1011.1 -37.8 62
06 23.02 Ю 2 35 км 9/0
[Ac lent Cs]
-31.2 -34.2 75 -39 -38 опасность
обморожения
1016.8 1008.0
09 23.02 Ю 2 40 км 8/0
[Ac lent Ci sp]
-23.4 -25.9 80 -30 -29 1013.3 1004.8
12 23.02 Ю 3 35 км 10/0
[Ac As]
-14.7 -18.1 75 -21 -21 1008.9 1000.7
15 23.02 ЮЗ 4 35 км 9/0
[Ac As]
-11.9 -16.3 70 -19 -19 1005.9 997.8 -11.5
18 23.02 ЮЗ 5-10
{11}
8000 м слаб. снег {метель} 10/0
[As op]
-11.7 -13.7 85 -20 -20 1003.9 995.9
21 23.02 Ю 5-10
{11}
9000 м слаб. снег {метель} 10/0
[As op]
-12.0 -14.0 85 -20 -20 1002.2 994.1
00 24.02 ЮЗ 6
{11}
7000 м слаб. снег {метель} 10/3 300 м
[Frnb As op]
-11.4 -12.7 90 -20 -20 999.6 991.6

 

Местоположение метеостанции Петрунь (Коми, Россия): широта 66.43 долгота 60.77 высота над уровнем моря 62 м.

В архиве по умолчанию представлена погода в Петруни за последнюю неделю. Архивные данные за месяц целиком и за предыдущие месяцы, начиная с января 2011 года, Вы можете получить, выбрав интересующий диапазон дат из раскрывающегося списка и нажав кнопку "Ввод!".


*Определитесь, кто Вы:
робот инопланетянин человек

Внимание! Время в таблицах - всемирное. Для получения местного времени необходимо прибавить поправку, которая равна 3 ч.

Смотрите также архив погоды в соседних городах и на ближайших метеорологических станциях:

Погода в Усинске (Коми, Россия) (159 км)
Погода в Елецкой (Коми, Россия) (160 км)
Погода в Хорей-Вере (Ненецкий АО, Россия) (163 км)
Погода в Усть-Усе (Коми, Россия) (180 км)
Погода в Воркуте (Коми, Россия) (182 км)
Погода в Мужах (Ямало-Ненецкий АО, Россия) (214 км)
Погода в Печоре (Коми, Россия) (222 км)
Погода в Харпе (Ямало-Ненецкий АО, Россия) (225 км)
Погода в Саранпауле (Ханты-Мансийский АО, Россия) (239 км)
Погода в Питляре (Ямало-Ненецкий АО, Россия) (242 км)

Пояснения к столбцам:

Ветер - указаны скорость ветра в м/с - средняя за 10 мин, порывы в срок и между сроками (в фигурных скобках) и направление, откуда дует ветер: С - северный, СВ - северо-восточный, В - восточный, ЮВ - юго-восточный, Ю - южный, ЮЗ - юго-западный, З - западный, СЗ - северо-западный.
Видимость - горизонтальная дальность видимости в метрах или километрах. При видимости от 1 до 10 км при отсутствии осадков обычно наблюдается дымка, при ухудшении видимости до 1 км и менее - туман. В сухую погоду видимость может ухудшаться дымом, пылью или мглою.
Явления - указаны атмосферные явления, наблюдавшиеся в срок или в последний час перед сроком; фигурными скобками обозначены явления, наблюдавшиеся между сроками (за 1-3 часа до срока); квадратными скобками обозначены град или гололедные отложения с указанием их диаметра в мм.
Облачность - указаны через наклонную черту общая и нижняя облачность в баллах и высота нижней границы облаков в метрах; квадратными скобками обозначены формы облаков: Ci - перистые, Cs - перисто-слоистые, Cc - перисто-кучевые, Ac - высококучевые, As - высокослоистые, Sc - слоисто-кучевые, Ns - слоисто-дождевые, Cu - кучевые, Cb - кучево-дождевые. Подробнее классификацию облаков см. в Атласе облаков (PDF).
T - Температура воздуха - температура, измеренная на высоте 2 м над землей.
Td - Температура точки росы - температура, при понижении до которой содержащийся в воздухе водяной пар достигнет насыщения.
f - Относительная влажность воздуха - влажноcть воздуха, измеренная на высоте 2 м над землей.
Te - Эффективная температура - температура, которую ощущает одетый по сезону человек в тени. Характеристика душности погоды. При расчете учитывается влияние влажности воздуха и скорости ветра на теплоощущения человека.
Tes - Эффективная температура на солнце - температура, которую ощущает человек, с поправкой на солнечный нагрев. Характеристика знойности погоды. Зависит от высоты солнца над горизонтом, облачности и скорости ветра. Ночью, в пасмурную погоду, а также при ветре 12 м/с и более поправка равна нулю.
P - Атмосферное давление - приведенное к уровню моря атмосферное давление.
Po - Атмосферное давление - измеренное на уровне метеостанции атмосферное давление.
Tmin - Минимальная температура - минимум температуры воздуха на высоте 2 м над землей.
Tmax - Максимальная температура - максимум температуры воздуха на высоте 2 м над землей.
R - Количество осадков - Количество выпавших осадков за период времени, мм. При наведении курсора мыши на число - период времени, за который выпало указанное количество осадков.
R24 - Количество осадков - Количество выпавших осадков за 24 часа, мм.
S - Снежный покров - Высота снежного покрова, см. При наведении курсора мыши на число - состояние снежного покрова и степень покрытия местности в баллах.